Flag for Norway Weather past 2 weeks in Stavanger, Norway

Now
61 °F

Broken clouds.


Feels Like: 61 °F
Forecast: 53 / 63 °F
Wind: 3 mph from West

Location: Stavanger / Sola

Current Time: Aug 27, 2014 at 12:55:16 PM

Latest Report: Aug 27, 2014 at 12:20 PM


Visibility: N/A

Pressure: 29.98 "Hg

Humidity: 83%

Dew point: 55 °F

Location of StavangerLocation

Historic Weather in Stavanger — Graph

°F

Stavanger temperature yesterday

Maximum temperature yesterday: 63 °F (at 12:20 PM)
Minimum temperature yesterday: 54 °F (at 1:20 AM)
Average temperature yesterday: 58 °F

Past Weeks' High & Low Weather Summary

 TemperatureHumidityPressure
High68 °F (Aug 14, 2:20 PM)100% (Aug 18, 12:20 AM)29.98 "Hg (Aug 18, 12:20 AM)
Low48 °F (Aug 22, 5:50 AM)49% (Aug 14, 2:20 PM)29.21 "Hg (Aug 18, 9:20 AM)
Average57 °F82%29.59 "Hg
* Reported Aug 12 11:20 AM — Aug 27 11:20 AM, Stavanger, Weather by CustomWeather, © 2014

Note: Actual official high and low records may vary slightly from our data, if they occured in-between our weather recording intervals... More about our weather records

Advertising

Stavanger weather history for previous 24 hours

 ConditionsComfort  
Time TempWeatherWind HumidityBarometerVisibility
11:20 AM
Aug 27
57 °FPartly sunny.2 mph94%29.98 "HgN/A
10:50 AM57 °FBroken clouds.1 mph94%29.98 "HgN/A
10:20 AM55 °FFog.2 mph94%29.98 "Hg3 mi
9:50 AM55 °FFog.2 mph94%29.98 "Hg2 mi
9:20 AM55 °FFog.2 mph94%29.98 "Hg2 mi
8:50 AM55 °FFog.2 mph94%29.95 "Hg3 mi
8:20 AM55 °FLow clouds.3 mph94%29.95 "Hg4 mi
7:50 AM55 °FLow clouds.3 mph94%29.95 "Hg4 mi
7:20 AM54 °FLow clouds.1 mph100%29.95 "Hg6 mi
6:50 AM52 °FLow clouds.1 mph100%29.95 "Hg6 mi
6:20 AM52 °FLow clouds.1 mph94%29.92 "Hg4 mi
5:50 AM50 °FLow clouds.1 mph100%29.92 "Hg4 mi
5:20 AM50 °FFog.2 mph100%29.92 "Hg3 mi
4:50 AM50 °FFog.2 mph100%29.92 "Hg1 mi
3:50 AM50 °FSnow. Light fog.2 mph94%29.92 "Hg4 mi
2:50 AM50 °FLight fog.5 mph94%29.92 "HgN/A
1:50 AM52 °FPassing clouds.1 mph94%29.92 "HgN/A
1:20 AM52 °FPassing clouds.No wind100%29.92 "HgN/A
12:50 AM54 °FPassing clouds.2 mph94%29.89 "HgN/A
12:20 AM54 °FPassing clouds.2 mph94%29.89 "HgN/A
11:50 PM
Aug 26
54 °FPassing clouds.1 mph94%29.89 "HgN/A
11:20 PM55 °FPassing clouds.2 mph94%29.89 "HgN/A
10:50 PM57 °FPassing clouds.3 mph88%29.89 "HgN/A
10:20 PM57 °FPassing clouds.2 mph88%29.89 "HgN/A
9:50 PM57 °FPassing clouds.6 mph88%29.89 "HgN/A
9:20 PM57 °FPassing clouds.6 mph82%29.86 "HgN/A
8:50 PM57 °FPassing clouds.12 mph88%29.86 "HgN/A
8:20 PM59 °FPassing clouds.10 mph82%29.86 "HgN/A
7:50 PM61 °FPassing clouds.15 mph77%29.86 "HgN/A
7:20 PM61 °FPassing clouds.14 mph83%29.86 "HgN/A
6:50 PM63 °FPassing clouds.14 mph77%29.86 "HgN/A
6:20 PM63 °FPassing clouds.15 mph77%29.86 "HgN/A
5:50 PM63 °FPassing clouds.15 mph77%29.86 "HgN/A
5:20 PM63 °FPassing clouds.13 mph77%29.86 "HgN/A
4:50 PM63 °FPassing clouds.13 mph77%29.86 "HgN/A
4:20 PM63 °FPassing clouds.12 mph77%29.86 "HgN/A
3:50 PM63 °FPassing clouds.9 mph77%29.86 "HgN/A
3:20 PM63 °FPassing clouds.8 mph73%29.86 "HgN/A
2:50 PM61 °FPassing clouds.9 mph77%29.86 "HgN/A
2:20 PM61 °FPassing clouds.10 mph77%29.86 "HgN/A
1:50 PM61 °FPassing clouds.9 mph77%29.86 "HgN/A
1:20 PM63 °FPassing clouds.9 mph73%29.83 "HgN/A
12:50 PM63 °FPassing clouds.8 mph73%29.83 "HgN/A
12:20 PM63 °FPassing clouds.8 mph73%29.83 "HgN/A
Weather by CustomWeather, © 2014

See weather overviewHow to use our weather pages